Regional Weather Roundup
Issued by NWS Jackson, KY

Home | Current Version | Previous Version | Text Only | Print | Product List | Glossary Off
Versions: 1 2 3 4 5 6 7 8 9 10 11 12 13 14 15 16 17 18 19 20 21 22 23 24 25 26 27

000
ASUS43 KJKL 170610
RWRJKL

EAST KENTUCKY HOURLY WEATHER ROUNDUP
NATIONAL WEATHER SERVICE JACKSON KY
100 AM EST TUE JAN 17 2017

NOTE: "FAIR" INDICATES FEW OR NO CLOUDS BELOW 12,000 FEET WITH
NO SIGNIFICANT WEATHER AND/OR OBSTRUCTIONS TO VISIBILITY.

* THESE REPORTS ARE NOT UNDER NWS QUALITY CONTROL AND MAY NOT
  REPORT WEATHER SUCH AS PRECIPITATION AND FOG.

KYZ079-080-083-085-087-088-110-112-115-119-120-170700
...EASTERN KENTUCKY...

CITY           SKY/WX    TMP DP  RH WIND       PRES   REMARKS
JACKSON        CLOUDY    59  49  69 VRB6      30.09F
6HR MIN TEMP:  57; 6HR MAX TEMP:  61; 6HR PCP: TRACE;

LONDON         CLOUDY    60  50  69 S8        30.09F
6HR MIN TEMP:  57; 6HR MAX TEMP:  60;

SOMERSET*      LGT RAIN  57  52  82 S7        30.10F
MONTICELLO*    LGT RAIN  60  55  83 SE8       30.09F
6HR MIN TEMP:  59; 6HR MAX TEMP:  62; 6HR PCP:  0.02;

WILLIAMSBURG*  MOCLDY    57  55  94 SE7       30.10F
MIDDLESBORO*   CLOUDY    59  53  80 S8        30.14F
6HR MIN TEMP:  50; 6HR MAX TEMP:  60;

HARLAN APT*    CLOUDY    59  48  67 CALM      30.14F
PIKE CO APT*   LGT RAIN  59  49  70 S7        30.11F
MOREHEAD APT*  MOCLDY    55  52  88 S6        30.09F
ASHLAND*       CLOUDY    48  48 100 SE3       30.08S
$$

KYZ035-036-041-042-044-050-067-078-099-170700
...CENTRAL KENTUCKY...

CITY           SKY/WX    TMP DP  RH WIND       PRES   REMARKS
MT STERLING*   LGT RAIN  59  54  82 SW9G17    30.08S
FLEMING/MASON* LGT RAIN  56  52  88 S8        30.06F
DANVILLE*      LGT RAIN  55  52  88 SW6       30.08R
LEXINGTON      LGT RAIN  58  53  84 S8        30.06S
6HR MIN TEMP:  57; 6HR MAX TEMP:  59; 6HR PCP:  0.07;

FRANKFORT      RAIN      57  53  86 S7        30.03F FOG
6HR MIN TEMP:  54; 6HR MAX TEMP:  59; 6HR PCP:  0.14;

LOUISVILLE     LGT RAIN  57  54  89 S9        29.99F
6HR MIN TEMP:  52; 6HR MAX TEMP:  58; 6HR PCP:  0.24;

LEBANON*       RAIN      59  55  88 S12       30.05F
GLASGOW*       LGT RAIN  57  57 100 S6        30.02F
BOWLING GREEN  LGT RAIN  60  56  86 S10       30.01F
6HR MIN TEMP:  60; 6HR MAX TEMP:  66; 6HR PCP:  0.29;

$$

KYZ091>093-OHZ055-061-077-WVZ005-015-034-035-042-170700
...SOUTHERN OHIO/WEST VIRGINIA...

CITY           SKY/WX    TMP DP  RH WIND       PRES   REMARKS
COVINGTON      LGT RAIN  54  53  97 S12       30.00F
COLUMBUS       LGT RAIN  48  48 100 SE6       30.04F
DAYTON         LGT RAIN  49  49 100 SE10      30.01F VSB 1
WILMINGTON     LGT RAIN  51  50  96 S8        30.03F
HUNTINGTON     CLOUDY    50  48  93 CALM      30.09S FOG
CHARLESTON     CLOUDY    49  47  93 CALM      30.11F FOG
PINEVILLE*     CLOUDY    48  46  93 MISG      30.20  FOG
BECKLEY        PTCLDY    48  45  89 SE10      30.16F
BLUEFIELD      CLOUDY    51  44  77 SW5       30.19F
LOGAN CO APT*  CLOUDY    59  48  67 VRB7      30.13F
$$

VAZ002-007-008-TNZ017-027-036-066-071-170700
...SOUTHWEST VIRGINIA/EAST TENNESSEE...

CITY           SKY/WX    TMP DP  RH WIND       PRES   REMARKS
WISE*          CLOUDY    55  46  71 S10       30.18F
JONESVILLE*    MOCLDY    52  50  93 CALM      30.18F
ABINGDON*      CLOUDY    51  49  93 CALM      30.19S
BRISTOL        CLOUDY    51  48  89 CALM      30.17F
MORRISTOWN*    PTCLDY    54  52  94 CALM      30.15F
SEVIERVILLE*   CLEAR     48  48 100 CALM      30.14F
KNOXVILLE      MOCLDY    53  51  93 CALM      30.14F
LAFOLLETTE*    CLOUDY    57  54  88 VRB5      30.16F
OAK RIDGE      MOCLDY    53  51  93 S3        30.16F
CROSSVILLE     CLOUDY    58  52  80 S15G22    30.13F
NASHVILLE      LGT RAIN  65  53  65 S14       30.03F
$$

...KEY TO REMARKS...
VSB - VISIBILITY IN MILES
WCI - WIND CHILL INDEX
HX  - HEAT INDEX

$$




USA.gov is the U.S. government's official web portal to all federal, state and local government web resources and services.